Location: Luxembourg
(49.6000°N, 6.1500°W)
Time: 06:24:22
(UTC+02:00)

OTV 5 (USA 277) - Visible Passes

Search period start: 22 April 2018 00:00
Search period end: 02 May 2018 00:00
Orbit: 310 x 323 km, 54.5° (Epoch: 21 April)

Date Brightness Start Highest point End Pass type
(mag) Time Alt. Az. Time Alt. Az. Time Alt. Az.
22 Apr ? 22:38:28 10° W 22:41:08 47° NNW 22:43:48 10° ENE visible
23 Apr ? 00:13:27 10° WNW 00:15:39 26° N 00:15:39 26° N visible
23 Apr ? 22:53:11 10° W 22:55:42 32° NNW 22:58:12 10° NE visible
24 Apr ? 00:28:00 10° NW 00:29:40 24° NNW 00:29:40 24° NNW visible
24 Apr ? 23:07:54 10° WNW 23:10:19 27° N 23:12:42 10° ENE visible
25 Apr ? 00:42:28 10° NW 00:43:34 20° NW 00:43:34 20° NW visible
25 Apr ? 23:22:32 10° WNW 23:24:57 27° N 23:26:33 16° NE visible
26 Apr ? 00:56:53 10° WNW 00:57:25 15° WNW 00:57:25 15° WNW visible
26 Apr ? 23:37:02 10° NW 23:39:34 33° NNE 23:40:22 26° NE visible
27 Apr ? 22:17:00 10° WNW 22:19:25 27° N 22:21:49 10° ENE visible
27 Apr ? 23:51:28 10° WNW 23:54:07 48° NNE 23:54:09 48° NNE visible
28 Apr ? 22:31:35 10° NW 22:34:03 29° N 22:36:30 10° ENE visible
29 Apr ? 00:05:53 10° WNW 00:07:57 47° WNW 00:07:57 47° WNW visible
29 Apr ? 22:46:02 10° NW 22:48:39 38° NNE 22:50:52 13° E visible
30 Apr ? 00:20:24 10° WNW 00:21:44 23° W 00:21:44 23° W visible
30 Apr ? 23:00:27 10° WNW 23:03:10 65° NNE 23:04:41 22° ESE visible
01 May ? 00:35:13 10° W 00:35:33 12° W 00:35:33 12° W visible
01 May ? 23:14:54 10° WNW 23:17:36 61° SSW 23:18:31 34° SE visible
